This is the latest recevied weather packets stored in our database for station/object KB4KY. If no packets are shown the sender has not sent any weather packets the latest 10 day(s).
| Time | Temp. | Humidity | Pressure | Rain* | Wind** | Luminosity | Snow |
|---|---|---|---|---|---|---|---|
| 1777756710 | 12.78° C | 63% | 1016.3 hPa | 0 mm | - | - | - |
| 1777756696 | 12.78° C | 63% | 1016.4 hPa | 0 mm | - | - | - |
| 1777756410 | 12.78° C | 63% | 1016.4 hPa | 0 mm | - | - | - |
| 1777756109 | 12.78° C | 63% | 1016.3 hPa | 0 mm | - | - | - |
| 1777755810 | 13.33° C | 62% | 1016.3 hPa | 0 mm | - | - | - |
| 1777755510 | 13.33° C | 61% | 1016.3 hPa | 0 mm | - | - | - |
| 1777755210 | 13.33° C | 60% | 1016.3 hPa | 0 mm | - | - | - |
| 1777754909 | 13.89° C | 58% | 1016.2 hPa | 0 mm | - | - | - |
| 1777754608 | 13.89° C | 55% | 1016.3 hPa | 0 mm | - | - | - |
| 1777754309 | 14.44° C | 53% | 1016.3 hPa | 0 mm | - | - | - |
| 1777754008 | 14.44° C | 54% | 1016.4 hPa | 0 mm | - | - | - |
| 1777753707 | 14.44° C | 53% | 1016.4 hPa | 0 mm | - | - | - |
| 1777753107 | 14.44° C | 56% | 1016.5 hPa | 0 mm | - | - | - |
| 1777752806 | 14.44° C | 53% | 1016.5 hPa | 0 mm | - | - | - |
| 1777752507 | 15° C | 53% | 1016.6 hPa | 0 mm | - | - | - |
| 1777752207 | 14.44° C | 58% | 1016.7 hPa | 0 mm | - | - | - |
| 1777751906 | 14.44° C | 56% | 1016.7 hPa | 0 mm | - | - | - |
| 1777751606 | 14.44° C | 54% | 1016.8 hPa | 0 mm | - | - | - |
| 1777751307 | 14.44° C | 56% | 1016.8 hPa | 0 mm | - | - | - |
| 1777751006 | 14.44° C | 60% | 1016.8 hPa | 0 mm | - | - | - |
| 1777750705 | 13.89° C | 57% | 1016.9 hPa | 0 mm | - | - | - |
| 1777750405 | 13.89° C | 65% | 1016.9 hPa | 0 mm | - | - | - |
| 1777750105 | 13.33° C | 60% | 1017 hPa | 0 mm | - | - | - |
| 1777749803 | 12.78° C | 61% | 1017.1 hPa | 0 mm | - | - | - |
| 1777749504 | 12.78° C | 61% | 1017.1 hPa | 0 mm | - | - | - |
* Rain latest hour (hover to see other rain measurements)
** Current wind speed in m/s (hover to see current wind gust speed)